Regional Weather Roundup
Issued by NWS Upton, NY

Current Version | Previous Version | Graphics & Text | Print | Product List | Glossary Off
Versions: 1 2 3 4 5 6 7 8 9 10 11 12 13 14 15 16 17 18 19 20 21 22 23 24 25 26 27

000
ASUS41 KOKX 272209
RWROKX

REGIONAL WEATHER ROUNDUP
NATIONAL WEATHER SERVICE NEW YORK NY
600 PM EDT TUE JUN 27 2017

NOTE: "FAIR" INDICATES FEW OR NO CLOUDS BELOW 12,000 FEET WITH NO
SIGNIFICANT WEATHER AND/OR OBSTRUCTIONS TO VISIBILITY.

NYZ071-072-176-178-NJZ106-104-272300-
NEW YORK CITY METRO AREA

CITY           SKY/WX    TMP DP  RH WIND       PRES   REMARKS
Central Park   PTSUNNY   73  54  51 CALM      29.95S
Bronx Bot Gard   N/A     75  52  43 W15       29.92S
LaGuardia APRT PTSUNNY   75  57  53 S10G20    29.91F
Kennedy INTL   MOSUNNY   73  58  59 S13       29.94F
Breezy Point     N/A     66 N/A N/A S10         N/A
Newark/Liberty PTSUNNY   78  47  33 W21       29.92S
Teterboro      MOSUNNY   75  50  41 NW15G21   29.91R
$$

NYZ177-179-078>081-272300-
LONG ISLAND NEW YORK

CITY           SKY/WX    TMP DP  RH WIND       PRES   REMARKS
Jones Beach      N/A     70 N/A N/A S7G14       N/A
Matinecock PT    N/A    N/A N/A N/A SW12        N/A
Farmingdale    SUNNY     72  61  68 SW10G21   29.95R
MacArthur/ISP  PTSUNNY   73  59  61 S14       29.92S
Shirley        CLOUDY    73  60  63 SW9       29.94R
Mt Sinai Harb    N/A    N/A N/A N/A SW9G15      N/A
Westhampton    MOSUNNY   70  57  63 SW8       29.95S
East Hampton   FAIR      71  60  67 SW9       29.93S
Montauk          N/A     71  66  84 SW9       29.95S
$$

NYZ052-065-067-272300-
HUDSON VALLEY

CITY           SKY/WX    TMP DP  RH WIND       PRES   REMARKS
White Plains   PTSUNNY   73  48  41 NW14      29.92R
Larchmont Harb   N/A     68 N/A N/A S14         N/A
Croton O-T Hud   N/A     72 N/A N/A W15G21      N/A
Newburgh       MOSUNNY   72  54  53 W12       29.94S
Montgomery     MOSUNNY   72  49  44 W9        29.93S
Poughkeepsie   PTSUNNY   74  45  35 SW16      29.91R
Albany         CLOUDY    64  51  62 W12       29.94S
$$

NJZ001-105-106-008-010-013-015-019>022-104-272300-
NEW JERSEY

CITY           SKY/WX    TMP DP  RH WIND       PRES   REMARKS
Newark/Liberty PTSUNNY   78  47  33 W21       29.92S
Teterboro      MOSUNNY   75  50  41 NW15G21   29.91R
Caldwell       MOSUNNY   76  50  40 W10       29.94S
Somerville     CLOUDY    76  52  43 NW6       29.92S
Linden         FAIR      77  47  33 NW14G22   29.92S
Perth Amboy      N/A     75 N/A N/A W16         N/A
Sussex         PTSUNNY   72  50  45 VRB3      29.95S
Andover          N/A     66  59  78 CALM      29.96R
Trenton        MOSUNNY   77  50  38 W9        29.93F
Millville      PTSUNNY   79  55  43 W12       29.95F
Atlantic City  MOSUNNY   80  51  36 W12       29.95S
Wrightstown    SUNNY     78  52  40 W12       29.91S
Toms River     MOSUNNY   79  53  40 W10       29.94F
Belmar         MOSUNNY   71  60  68 E7        29.95F
$$

PAZ047>061-062-071-272300-
EASTERN PENNSYLVANIA

CITY           SKY/WX    TMP DP  RH WIND       PRES   REMARKS
Philadelphia   MOSUNNY   79  48  33 W14G23    29.95S
Allentown      PTSUNNY   73  53  49 N5        29.95R
Scranton       PTSUNNY   72  49  44 W15       29.94F
$$

CTZ002-004>006-009-010-012-RIZ004-006-007-MAZ004-011-015-272300-
SOUTHERN NEW ENGLAND
 IN CT

CITY           SKY/WX    TMP DP  RH WIND       PRES   REMARKS
Bradley INTL   PTSUNNY   70  57  63 S8        29.89F
Hartford       MOSUNNY   67  62  84 CALM      29.89F THUNDER
Danbury        NOT AVBL
Wtrbury/Oxford MOSUNNY   72  54  53 SW8       29.92S
Bridgeport     MOSUNNY   74  61  63 S13       29.91S
Meriden        MOSUNNY   74  56  53 S12       29.89F
New Haven      MOSUNNY   73  60  63 S9        29.91S
Chester        FAIR      73  59  60 S9        29.92F
Groton         MOSUNNY   70  64  81 SW12      29.92R
Wilimantic     PTSUNNY   74  55  51 W6        29.90F

 IN RI

CITY           SKY/WX    TMP DP  RH WIND       PRES   REMARKS
Providence     PTSUNNY   74  59  59 S15G24    29.91F
Block Island   SUNNY     70  64  81 SW12      29.94R
Westerly       MOSUNNY   71  64  78 S14G20    29.93S
 IN MA

CITY           SKY/WX    TMP DP  RH WIND       PRES   REMARKS
Boston         PTSUNNY   70  54  56 NW8       29.90S
Worcester      PTSUNNY   64  55  72 S10       29.91F
Westfield      PTSUNNY   69  60  73 S7        29.89S
Provincetown   MOSUNNY   70  59  68 S10G18    29.94S
Nantucket      MOSUNNY   68  63  84 S9        29.96F
$$

ANZ330-335-338-340-345-350-353-355-272300-
COASTAL MARINE OBSERVATIONS


STATION/POSITION TIME  SKY/WX   TEMP    WIND        PRES    VSBY  WAVE
                                AIR SEA DIR/SP/G                  HT/PER
                 (UTC)          (F)     (DEG/KT/KT) (MB)    (MI)  (FT/S)
NY HARB ENTRANCE 2150            69 69  170/ 10/ 12 1013.6          1/ 8
20 S FIRE ISLAND 2150            70 71  270/  6/  8 1013.9          1/ 7
GREAT SOUTH BAY  2130            71 76  210/ 16/ 17   N/A
23 SSW MONTAUK P 2150            68 66              1013.9          3/ 4
15 E BARNEGAT LI 2130               67                N/A           2/10
HUDSON CANYON    2050            70 69  190/  8/  8 1014.2          2/ 9
KINGS POINT      2130            72 67  210/ 11/ 16 1012.9
EXECUTION ROCKS  2145            71     180/ 10/ 14   N/A
CENTRAL LI SOUND NOT AVBL
EASTERN LI SOUND NOT AVBL
ROBBINS REEF     2130                   160/ 14/ 19 1013.6
$$


>>>>>>>>>>>>>>>>>>>>>>>>>>>> KEY <<<<<<<<<<<<<<<<<<<<<<<<<<<
>                                                          <
>     SKY/WX - Sky Condition/Present Weather               <
>     TMP    - Temperature in Fahrenheit                   <
>     DP     - Dew Point in Fahrenheit                     <
>     RH     - Relative Humidity in Percent                <
>     WIND   - Direction (from) and Speed in MPH           <
>     PRES   - Mean Sea Level Pressure (inches of Hg)      <
>     WCI    - Wind Chill Index                            <
>     VSB    - VISIBILITY IN MILES                         <
>     HX     - HEAT INDEX                                  <
>     TC     - TEMPERATURE IN CELSIUS                      <
>     VRB    - VARIABLE WIND DIRECTION                     <
>                                                          <
>>>>>>>>>>>>>>>>>>>>>>>>>>>> KEY <<<<<<<<<<<<<<<<<<<<<<<<<<<




USA.gov is the U.S. government's official web portal to all federal, state and local government web resources and services.